KF5CFW Weather Reports


time (UTC)temp
F
wind
direction
speed
knots
gust
knots
rain 1hr
in
rain 24hr
in
rain mn
in
humidity
%
barometer
mb
20260502163053 71 354 0.0 2.6 0.00 0.00 0.00 47 1022.2
20260502161539 70 353 0.0 0.9 0.00 0.00 0.00 48 1022.1
20260502151522 65 349 0.0 0.9 0.00 0.00 0.00 54 1022.0
20260502123036 51 174 0.0 0.0 0.00 0.00 0.00 1 1020.9
20260502121540 50 173 0.0 0.0 0.00 0.00 0.00 1 1020.7
20260502114520 50 174 0.0 0.0 0.00 0.00 0.00 1 1020.1
20260502113016 50 173 0.0 0.0 0.00 0.00 0.00 1 1019.8
20260502111517 50 173 0.0 0.0 0.00 0.00 0.00 1 1019.5
20260502110009 50 173 0.0 0.0 0.00 0.00 0.00 1 1019.3
20260502104502 50 173 0.0 0.0 0.00 0.00 0.00 1 1019.3
20260502103058 51 174 0.0 0.0 0.00 0.00 0.00 1 1019.1
20260502101555 51 173 0.0 0.0 0.00 0.00 0.00 1 1019.4
20260502070109 52 173 0.0 0.0 0.00 0.00 0.00 11 1019.0
20260502064553 52 174 0.0 0.0 0.00 0.00 0.00 18 1018.9
20260502063055 53 173 0.0 0.0 0.00 0.00 0.00 19 1018.9
20260502061550 53 173 0.0 0.0 0.00 0.00 0.00 21 1019.0
20260502060047 53 173 0.0 0.0 0.00 0.00 0.00 30 1019.0
20260502054546 54 173 0.0 0.0 0.00 0.00 0.00 31 1019.0
20260502053046 54 173 0.0 0.0 0.00 0.00 0.00 39 1019.1
20260502051545 55 174 0.0 0.0 0.00 0.00 0.00 42 1018.8
20260502050038 55 173 0.0 0.0 0.00 0.00 0.00 47 1018.9
20260502044536 56 173 0.0 0.0 0.00 0.00 0.00 50 1018.8
20260502043027 56 173 0.0 0.0 0.00 0.00 0.00 52 1018.8
20260502041531 57 173 0.0 0.0 0.00 0.00 0.00 55 1018.7
20260502040019 57 173 0.0 0.0 0.00 0.00 0.00 56 1018.8
20260502034515 58 174 0.0 0.0 0.00 0.00 0.00 57 1018.5
20260502033011 58 173 0.0 0.0 0.00 0.00 0.00 58 1018.4
20260502031506 58 173 0.0 0.0 0.00 0.00 0.00 59 1018.4
20260502030000 59 173 0.0 0.0 0.00 0.00 0.00 59 1018.3
20260502024557 59 173 0.0 0.0 0.00 0.00 0.00 59 1017.9
20260502023055 59 173 0.0 0.0 0.00 0.00 0.00 59 1017.8
20260502021548 60 174 0.0 0.0 0.00 0.00 0.00 59 1017.7
20260502020048 60 173 0.0 0.0 0.00 0.00 0.00 59 1017.6
20260502014539 60 174 0.0 0.9 0.00 0.00 0.00 59 1017.2
20260502013035 60 188 0.0 0.0 0.00 0.00 0.00 59 1016.7
20260502011530 61 187 0.0 0.0 0.00 0.00 0.00 59 1016.6
20260502010029 61 190 0.0 0.0 0.00 0.00 0.00 59 1016.1
20260502004528 61 191 0.0 0.0 0.00 0.00 0.00 59 1015.9
20260502003025 61 191 0.0 0.9 0.00 0.00 0.00 59 1015.7
20260502001523 62 225 0.0 0.0 0.00 0.00 0.00 59 1015.5
20260502000018 62 85 0.0 0.0 0.00 0.00 0.00 59 1015.5
20260501234513 62 82 0.0 0.0 0.00 0.00 0.00 59 1015.5
20260501233009 62 60 0.0 0.0 0.00 0.00 0.00 59 1015.2
20260501231505 63 59 0.0 0.0 0.00 0.00 0.00 58 1015.0
20260501230002 63 56 0.0 0.9 0.00 0.00 0.00 57 1015.0
20260501224559 63 131 0.0 0.9 0.00 0.00 0.00 56 1014.9
20260501223122 63 20 0.0 0.9 0.00 0.00 0.00 55 1015.0
20260501221555 64 47 0.0 0.9 0.00 0.00 0.00 55 1014.9
20260501220054 64 29 0.0 0.9 0.00 0.00 0.00 55 1014.8
20260501214556 64 12 0.0 1.7 0.00 0.00 0.00 55 1014.8
20260501213100 64 360 0.0 0.9 0.00 0.00 0.00 54 1014.8
20260501211554 64 23 0.0 1.7 0.00 0.00 0.00 53 1015.0
20260501210047 65 17 0.0 0.9 0.00 0.00 0.00 54 1014.9
20260501204548 65 13 0.0 0.9 0.00 0.00 0.00 54 1015.4
20260501203038 64 17 0.0 0.9 0.00 0.00 0.00 54 1015.6
20260501201535 64 80 0.0 1.7 0.00 0.00 0.00 55 1015.8
20260501200030 64 132 0.0 0.9 0.00 0.00 0.00 56 1016.1
20260501194525 64 18 0.0 0.9 0.00 0.00 0.00 56 1015.9
20260501193021 63 115 0.0 0.9 0.00 0.00 0.00 55 1014.9
20260501191517 63 141 0.0 0.9 0.00 0.00 0.00 56 1014.8
20260501190014 63 141 0.0 0.9 0.00 0.00 0.00 54 1015.1
20260501184513 64 155 0.0 0.9 0.00 0.00 0.00 54 1015.5
20260501183013 64 32 0.0 0.9 0.00 0.00 0.00 52 1015.3
20260501181514 64 27 0.0 2.6 0.00 0.00 0.00 50 1015.3